EDT,Max TemperatureF,Mean TemperatureF,Min TemperatureF,Max Dew PointF,MeanDew PointF,Min DewpointF,Max Humidity, Mean Humidity, Min Humidity, Max Sea Level PressureIn, Mean Sea Level PressureIn, Min Sea Level PressureIn, Max VisibilityMiles, Mean VisibilityMiles, Min VisibilityMiles, Max Wind SpeedMPH, Mean Wind SpeedMPH, Max Gust SpeedMPH,PrecipitationIn, CloudCover, Events, WindDirDegrees
2012-8-1,91,79,67,72,68,66,100,74,47,29.90,29.86,29.81,10,10,6,10,4,17,0.01,2,,214
2012-8-2,90,78,65,70,67,62,100,72,43,29.92,29.89,29.86,10,5,0,8,2,13,0.00,1,Fog,176
2012-8-3,86,77,67,72,68,66,100,79,57,30.02,29.93,29.88,10,6,2,17,3,24,0.02,1,Rain-Thunderstorm,135
2012-8-4,87,79,70,76,71,67,100,83,65,30.08,30.04,29.98,10,7,0,24,6,32,0.81,4,Fog-Rain-Thunderstorm,170
2012-8-5,85,79,73,73,71,69,87,76,65,30.14,30.08,30.04,10,10,6,14,7,21,0.02,5,Rain,208
2012-8-6,86,78,69,71,68,65,100,74,48,30.12,30.07,30.01,10,10,7,8,2,10,0.00,4,,338
2012-8-7,88,78,67,68,65,60,97,69,40,30.02,29.99,29.94,10,9,5,8,2,16,0.00,1,,302
2012-8-8,92,78,64,72,67,63,100,71,41,30.03,29.97,29.92,10,6,2,9,3,14,0.00,1,,202
2012-8-9,89,78,67,72,68,63,97,75,53,29.94,29.87,29.79,10,8,3,17,4,26,0.01,1,Rain,185
2012-8-10,83,73,63,70,64,56,100,77,54,29.85,29.77,29.73,10,8,1,14,6,21,0.48,5,Rain,222
2012-8-11,74,65,56,60,57,53,97,75,53,30.00,29.94,29.86,10,10,7,29,5,29,T,4,Rain,245
2012-8-12,81,69,56,61,57,53,100,70,39,30.06,30.02,30.00,10,8,2,10,2,16,0.00,2,,252
2012-8-13,83,72,60,67,61,58,100,72,43,30.04,29.99,29.92,10,9,5,10,2,13,0.00,1,,182
2012-8-14,81,73,65,70,65,63,100,81,62,29.94,29.90,29.85,10,9,4,12,3,16,0.09,5,Rain,224
2012-8-15,83,74,64,66,64,59,100,74,47,30.01,29.95,29.90,10,6,1,8,1,12,T,2,Rain,358
2012-8-16,86,73,60,67,63,59,100,71,42,30.06,30.00,29.90,10,6,2,9,4,14,0.00,0,,204
2012-8-17,74,69,64,67,65,62,93,83,73,29.97,29.91,29.82,10,8,2,13,4,17,0.05,4,Rain,226
2012-8-18,82,71,59,64,58,52,100,68,36,29.99,29.94,29.87,10,8,0,10,1,12,0.00,3,Fog,341
2012-8-19,80,70,59,63,59,56,97,71,45,29.91,29.87,29.83,10,8,2,6,1,8,T,3,Rain,77
2012-8-20,80,69,57,61,57,50,97,67,37,29.99,29.93,29.87,10,8,2,10,3,14,0.00,3,,299
2012-8-21,83,69,54,59,56,53,100,70,39,30.09,30.04,29.99,10,8,3,15,3,23,0.01,1,Rain-Thunderstorm,177
2012-8-22,85,70,55,61,57,51,100,67,34,30.16,30.11,30.07,10,6,0,14,1,23,0.00,0,Fog,177
2012-8-23,88,72,56,63,57,52,100,65,30,30.17,30.12,30.07,10,6,1,8,1,12,0.00,0,,122
2012-8-24,90,74,58,64,59,52,100,65,29,30.15,30.10,30.04,10,6,2,10,2,14,0.00,0,,184
2012-8-25,91,77,62,64,61,57,93,64,34,30.15,30.10,30.06,10,9,4,9,3,13,0.00,1,,107
2012-8-26,91,75,58,64,59,54,100,67,34,30.20,30.11,30.05,10,8,4,8,2,13,0.00,0,,123
2012-8-27,92,78,63,68,64,61,93,66,38,30.10,30.03,29.95,10,8,4,12,4,17,T,3,,225
2012-8-28,90,80,69,71,65,55,93,63,32,30.05,30.00,29.94,10,7,2,12,3,16,0.03,5,Rain,10
2012-8-29,87,75,63,61,57,53,84,58,32,30.06,30.01,29.97,10,10,10,10,5,16,0.00,0,,14
2012-8-30,90,74,57,61,56,52,93,60,27,30.12,30.07,30.03,10,10,7,9,2,13,0.00,0,,336
2012-8-31,95,80,65,73,68,61,94,68,41,30.19,30.12,30.08,10,9,7,17,4,28,T,1,,225